{"data":{"norad_id":62964,"epoch":"2026-09-21T20:37:04.126656Z","epoch_age_seconds":47670,"freshness":"FRESH","line1":"1 62964U 25029S   26264.85907554  .00021503  00000+0  64560-3 0  9992","line2":"2 62964  53.1591  35.4792 0001001  83.1226 276.9890 15.34405502 91434","mean_motion":15.34405502,"eccentricity":0.0001001,"inclination_deg":53.1591,"raan_deg":35.4792,"arg_perigee_deg":83.1226,"mean_anomaly_deg":276.989,"bstar":0.0006456,"rev_number":9143,"period_min":93.847421566402,"perigee_km":462.00212068137,"apogee_km":463.37165362358,"semimajor_km":6840.8238871525,"source":"CELESTRAK","updated_at":"2026-09-22T09:00:49.714588Z"}}